Weather in Tuobuya

Russia / Sakha (Yakutia) Republic     61°57′52″N   122°05′06″E
temp.,
°C
wind,
m/s
gust,
m/s
humid.,
%
clouds,
%
prec.,
mm/h
press.,
hPa
HPBL,
m
4 march, thu
thu400:00−37wnw239880 0.0 102543
03:00−34w389689 0.0 1025310
06:00−34wnw4896100 0.1 1024390
09:00−33wnw4994100 0.3 1025424
12:00−31wnw5992100 0.1 1026531
15:00−29w51191100 0.1 1026626
18:00−30wnw51193100 0.0 1028653
21:00−31wnw51394100 0.1 1030621
5 march, fri
fri500:00−31wnw41195100 0.1 1031510
03:00−33w41196100 0.1 1033345
06:00−35w4109493 0.0 1033314
09:00−34w4119357 0.0 1034324
12:00−30w489135 0.0 1033381
15:00−26w488943 0.0 1032483
18:00−27wsw389420 0.0 1031202
21:00−30wsw239910 0.0 103230
6 march, sat
sat600:00−31wsw231009 0.0 103119
03:00−31wsw221004 0.0 103119
06:00−32sw12990 0.0 103019
09:00−29s12930 0.0 102930
12:00−21s23790 0.0 1026301
15:00−18se23740 0.0 1024447
18:00−22ese22885 0.0 102320
21:00−25ese23902 0.0 102320
7 march, sun
sun700:00−26ese22890 0.0 102220
03:00−26ese23900 0.0 102221
06:00−27ese239225 0.0 102134
09:00−25ese249236 0.0 1020109
12:00−18ese248938 0.0 1018240
15:00−15ese248860 0.0 1017358
18:00−16ese249699 0.0 1016122
21:00−18ese259890 0.1 1016120
8 march, mon
mon800:00−18ese249896 0.1 101598
03:00−19e239892 0.2 101473
06:00−18e239896 0.1 101495
09:00−17e239797 0.3 1014101
12:00−12s1289100 0.3 1013289
15:00−9wnw1288100 0.3 1013436
18:00−11ene019799 0.2 101321
21:00−14s119995 0.3 101420